Terminal Aerodrome Forecast
Issued by NWS

Home | Current Version | Previous Version | Text Only | Print | Product List | Glossary On
Versions: 1 2 3 4 5 6 7 8 9 10 11 12 13 14 15 16 17 18 19 20 21 22 23 24 25 26 27 28 29 30 31 32 33 34 35
000
FTUS45 KSLC 212333
TAFBCE
TAF
KBCE 212333Z 2200/2224 36010KT P6SM VCSH FEW050 SCT100 BKN150
      TEMPO 2200/2201 6SM -RA SCT050 BKN080
     FM220300 26007KT P6SM BKN100
     FM221800 24010G18KT P6SM VCSH SCT080 SCT120=

USA.gov is the U.S. government's official web portal to all federal, state and local government web resources and services.